Location: Cubitt Town
(51.4833°N, 0.0000°E)
Time: 23:37:27
(UTC+00:00)

Cosmos 2322 Rocket - Pass Details

Date: 15 May 2026
Orbit: 831 x 850 km, 71.0° (Epoch: 11 June)

Event Time Altitude Azimuth Distance (km) Brightness Sun altitude
Rises 20:32:02 0° 330° (NNW) 3,405 7.0 -6.6°
Reaches altitude 10° 20:34:33 10° 336° (NNW) 2,470 5.9 -6.9°
Maximum altitude 20:40:05 52° 52° (NE) 1,049 2.7 -7.5°
Drops below altitude 10° 20:45:37 10° 129° (SE) 2,469 3.9 -8.1°
Enters shadow 20:45:40 10° 129° (SE) 2,488 4.0 -8.1°
